Skip Page Navigation
NASA JPL Caltech
NASA Logo - Jet Propulsion Laboratory + View the NASA Portal
+ Center for Near-Earth Object Studies
JPL Home Earth Solar System Stars & Galaxies Technology
JPL Solar System Dynamics
BODIES ORBITS EPHEMERIDES TOOLS PHYSICAL DATA DISCOVERY FAQ SITE MAP
IMPORTANT: The SSD Announcement email list is now available. Major changes are coming in the near future, including possible hostname and/or URL changes. To be notified of such changes, subscribe to this email list.

Please visit this page for more details.


JPL Small-Body Database Browser
Search: [ help ]  
173393 (2000 CP82)
Classification: Main-belt Asteroid          SPK-ID: 2173393
Ephemeris | Orbit Diagram | Orbital Elements | Mission Design | Physical Parameters | Discovery Circumstances | Close-Approach Data ]

[ show orbit diagram ]
Orbital Elements at Epoch 2458600.5 (2019-Apr-27.0) TDB
Reference: JPL 14 (heliocentric ecliptic J2000)
 Element Value Uncertainty (1-sigma)   Units 
e .1722906144706879 6.2299e-08  
a 2.549033404882056 1.6189e-08 au
q 2.109858873248617 1.6127e-07 au
i 5.529693569602185 7.1818e-06 deg
node 135.2600771033481 4.46e-05 deg
peri 320.9653811715161 4.7309e-05 deg
M 295.5698294027621 1.7622e-05 deg
tp 2458866.540954743437
(2020-Jan-18.04095474)
7.4343e-05 TDB
period 1486.489059703706
4.07
1.4161e-05
3.877e-08
d
yr
n .2421813989480399 2.3072e-09 deg/d
Q 2.988207936515496 1.8979e-08 au
  Orbit Determination Parameters
   # obs. used (total)      337  
   data-arc span      7245 days (19.84 yr)  
   first obs. used      2000-02-04  
   last obs. used      2019-12-06  
   planetary ephem.      DE431  
   SB-pert. ephem.      SB431-N16  
   condition code      0  
   norm. resid. RMS      .58582  
   source      ORB  
   producer      Otto Matic  
   solution date      2019-Dec-14 13:02:34  

Additional Information
 Earth MOID = 1.13009 au 
 Jupiter MOID = 2.18689 au 
 T_jup = 3.414 
[ show covariance matrix ]

Ephemeris | Orbit Diagram | Orbital Elements | Mission Design | Physical Parameters | Discovery Circumstances | Close-Approach Data ]

Physical Parameter Table
Parameter Symbol Value Units Sigma Reference Notes
absolute magnitude H 16.2   n/a MPO412970  

173393 (2000 CP82)          Discovered 2000-Feb-04 by LINEAR at Socorro
Reference: 20080122/Numbers.arcLast Updated: 2008-01-28

[ show close-approach data ]
Alternate Designations
 2000 CP82 = 2002 QR33 
Ephemeris | Orbit Diagram | Orbital Elements | Mission Design | Physical Parameters | Discovery Circumstances | Close-Approach Data ]
ABOUT SSD CREDITS/AWARDS PRIVACY/COPYRIGHT GLOSSARY LINKS
FirstGov 2020-Jan-26 03:04 UT
(server date/time)  
NASA Home Page
Site Manager:   Ryan S. Park
Webmaster  Alan B. Chamberlin